Temp
15 15 15 15 15 15 15 14 14 14 13 13 13 12 12 12 11 11 11 11 11 11 11 12 12 12 12 12 12 12 12 12 12 12 12 12 12 12 12 12 12 12
15 15 15 15 15 15 15 14 14 14 13 13 12 12 12 12 11 11 11 11 11 11 11 12 12 12 12 12 12 12 12 12 12 12 12 12 12 12 12 12 12 12
15 15 15 15 15 15 14 14 13 13 13 12 12 12 12 11 11 11 11 11 11 11 11 11 12 12 12 12 12 12 12 12 12 11 11 12 12 12 12 12 12 12
15 15 15 14 14 14 14 14 13 13 12 12 12 12 11 11 11 11 11 11 11 11 11 11 11 11 11 12 12 12 11 11 11 11 11 12 12 12 12 12 12 12
14 14 14 14 14 14 14 13 13 12 12 12 12 12 11 12 12 12 11 11 11 10 11 11 11 11 11 11 11 11 11 11 11 11 11 12 12 12 12 12 12 13
14 14 14 13 13 13 13 13 13 12 12 12 12 12 12 12 12 12 11 11 10 10 10 10 10 11 11 11 11 11 11 11 11 11 11 12 12 12 12 12 13 13
13 13 13 13 13 13 13 13 13 12 12 12 12 12 12 12 12 12 11 11 10 10 11 11 11 11 11 11 11 12 11 11 11 11 11 12 12 12 12 12 12 12
13 13 13 13 13 13 13 13 13 13 12 12 12 12 12 12 12 12 11 11 11 10 11 11 11 11 11 11 11 12 12 12 12 11 12 12 12 12 12 12 12 12
13 13 13 13 13 13 13 13 13 12 12 12 12 12 12 11 11 11 11 11 11 11 11 11 11 11 11 11 11 12 12 12 12 12 12 12 12 12 12 12 12 12
13 12 12 12 13 13 13 13 12 12 12 12 12 12 11 11 11 11 11 11 11 11 11 11 11 11 11 12 12 12 12 12 12 12 12 12 12 12 13 13 13 13
12 12 12 12 12 13 13 12 12 12 12 12 12 11 11 11 11 11 11 11 11 11 11 11 11 11 11 11 11 12 12 12 11 11 12 12 12 12 12 12 12 12
12 12 12 12 12 13 13 12 12 12 12 12 12 11 11 11 11 11 11 11 11 11 11 11 11 11 11 11 11 11 11 11 11 11 12 12 12 12 12 12 12 12
11 11 11 12 12 12 12 12 11 12 12 12 11 11 11 11 11 11 11 11 11 11 11 11 11 11 11 11 11 11 11 11 11 11 12 12 12 12 12 12 12 12
11 11 11 11 11 11 11 11 11 11 12 11 11 11 11 11 11 11 11 11 11 11 11 11 11 11 11 11 11 11 11 11 11 11 12 12 12 12 13 13 13 13
11 11 11 11 11 11 11 11 11 11 11 11 11 11 11 11 11 11 11 11 11 11 11 11 11 11 11 11 11 12 11 11 11 11 12 12 12 12 13 13 13 13
11 11 11 11 10 10 10 10 10 10 11 11 11 11 11 11 11 11 11 11 11 11 11 11 11 11 11 11 11 12 12 12 12 12 12 12 12 12 12 12 13 12
11 11 11 11 10 10 10 10 10 10 10 10 10 11 11 11 11 11 11 11 11 11 11 11 11 11 11 11 11 11 11 12 12 12 12 12 12 12 12 12 12 12
10 10 10 10 10 10 10 10 10 10 10 10 10 10 10 11 11 11 11 11 11 11 11 11 11 11 11 11 11 11 11 11 11 11 11 11 11 11 11 12 12 12
9 9 9 9 9 9 10 10 10 10 10 10 10 10 10 10 11 11 11 11 11 11 11 11 11 11 11 11 11 11 11 11 11 11 11 11 11 11 11 11 11 11
9 9 9 9 9 9 9 9 10 10 10 10 10 10 10 10 10 10 10 10 11 11 11 11 11 11 11 11 11 11 11 11 11 11 11 11 11 11 11 11 11 11
9 9 9 9 9 9 9 9 9 9 10 10 9 10 10 10 10 10 10 10 10 10 10 10 11 11 11 11 11 11 11 11 11 11 11 11 11 11 11 11 11 11
9 9 9 9 9 9 9 9 9 9 9 9 9 9 9 9 9 9 9 9 9 9 9 10 10 10 10 11 11 11 10 10 10 11 11 10 10 10 10 10 10 10
9 9 9 9 9 9 9 9 9 9 9 9 9 9 9 9 9 9 9 9 9 9 9 9 9 10 10 10 10 10 10 10 10 10 10 10 10 10 10 10 10 10
10 9 9 9 9 9 9 9 9 9 9 9 9 9 9 9 9 9 9 9 9 9 9 9 9 9 9 9 10 10 10 10 10 9 9 9 9 10 10 10 10 9
9 9 9 9 9 10 10 10 10 10 9 9 9 9 9 9 9 9 9 9 9 9 9 9 9 9 9 9 9 9 9 9 9 9 9 9 9 9 9 9 9 9
8 9 9 9 9 9 9 9 9 9 10 10 10 10 10 10 10 10 10 9 9 9 9 9 9 9 9 9 9 9 9 9 9 9 9 9 9 9 9 9 9 9
Height
1536 1537 1538 1539 1540 1540 1541 1541 1542 1542 1542 1542 1543 1543 1543 1544 1544 1545 1545 1546 1547 1547 1548 1549 1550 1551 1552 1552 1553 1554 1555 1555 1556 1556 1557 1557 1558 1558 1558 1559 1560 1561
1536 1537 1538 1539 1540 1540 1541 1541 1542 1542 1542 1542 1543 1543 1543 1543 1544 1545 1546 1546 1547 1547 1548 1548 1549 1550 1551 1553 1554 1554 1555 1556 1556 1557 1557 1558 1558 1558 1559 1559 1560 1561
1535 1536 1538 1539 1540 1540 1541 1541 1542 1542 1542 1543 1543 1543 1544 1544 1544 1545 1545 1546 1547 1547 1548 1549 1550 1551 1552 1553 1554 1554 1555 1556 1556 1557 1558 1559 1559 1559 1560 1561 1561 1562
1536 1537 1538 1539 1540 1540 1541 1541 1542 1542 1542 1543 1543 1544 1544 1544 1544 1544 1545 1546 1547 1548 1548 1549 1550 1551 1552 1553 1554 1555 1555 1556 1557 1558 1559 1560 1560 1561 1561 1562 1563 1563
1536 1537 1537 1539 1540 1540 1541 1541 1542 1542 1543 1543 1543 1544 1544 1544 1544 1545 1545 1546 1547 1548 1549 1550 1551 1552 1553 1554 1555 1556 1556 1557 1558 1559 1559 1560 1561 1561 1562 1563 1564 1564
1536 1537 1538 1539 1540 1540 1541 1541 1542 1542 1542 1543 1543 1544 1544 1544 1544 1545 1546 1547 1548 1549 1550 1551 1552 1552 1553 1554 1555 1556 1557 1558 1559 1559 1560 1561 1561 1562 1563 1563 1564 1565
1536 1537 1538 1539 1540 1540 1541 1541 1542 1542 1542 1543 1543 1543 1543 1544 1545 1545 1546 1547 1548 1549 1550 1551 1552 1553 1554 1554 1555 1556 1557 1558 1559 1560 1561 1561 1562 1562 1563 1563 1564 1565
1536 1538 1539 1540 1540 1540 1541 1541 1542 1542 1542 1543 1543 1543 1543 1544 1545 1545 1546 1546 1547 1549 1550 1551 1552 1553 1554 1555 1555 1557 1557 1558 1559 1560 1561 1562 1562 1562 1563 1563 1564 1565
1537 1538 1539 1540 1540 1540 1541 1542 1542 1542 1542 1542 1542 1543 1543 1544 1545 1545 1546 1546 1547 1549 1550 1551 1552 1552 1553 1554 1555 1557 1557 1558 1559 1560 1561 1562 1562 1563 1563 1564 1564 1566
1537 1539 1539 1540 1540 1541 1542 1542 1543 1542 1542 1542 1542 1543 1543 1544 1545 1546 1546 1547 1548 1549 1550 1551 1552 1552 1553 1554 1555 1557 1558 1558 1560 1561 1562 1562 1563 1563 1564 1565 1565 1566
1536 1538 1539 1539 1540 1541 1542 1543 1543 1543 1543 1543 1543 1543 1544 1545 1545 1546 1547 1548 1549 1550 1550 1551 1552 1553 1554 1555 1556 1557 1558 1559 1560 1561 1562 1562 1563 1564 1564 1565 1566 1567
1535 1537 1538 1539 1540 1541 1543 1543 1543 1543 1543 1543 1543 1544 1545 1545 1546 1547 1548 1549 1550 1550 1551 1552 1553 1554 1555 1555 1556 1557 1558 1559 1560 1561 1562 1563 1564 1564 1565 1566 1566 1567
1535 1537 1537 1539 1540 1541 1543 1544 1544 1544 1544 1544 1544 1544 1545 1546 1547 1548 1548 1549 1550 1551 1552 1553 1554 1555 1555 1556 1557 1558 1558 1559 1560 1561 1562 1563 1564 1564 1565 1566 1566 1567
1534 1536 1538 1540 1540 1541 1542 1544 1544 1544 1544 1544 1545 1545 1546 1547 1547 1548 1549 1549 1550 1551 1552 1553 1554 1555 1555 1556 1557 1558 1558 1559 1560 1561 1561 1562 1563 1564 1565 1566 1566 1567
1532 1535 1538 1539 1540 1541 1542 1543 1544 1544 1544 1545 1545 1545 1546 1546 1547 1548 1548 1549 1550 1551 1552 1553 1553 1554 1555 1556 1557 1558 1558 1559 1559 1560 1561 1562 1563 1563 1564 1565 1566 1566
1531 1533 1536 1538 1540 1541 1541 1542 1543 1543 1544 1544 1544 1545 1545 1545 1546 1547 1548 1549 1550 1551 1551 1552 1553 1554 1555 1555 1556 1557 1558 1558 1559 1559 1560 1561 1561 1562 1562 1563 1564 1565
1532 1533 1535 1536 1539 1540 1540 1541 1542 1542 1543 1543 1543 1544 1544 1544 1545 1546 1547 1548 1549 1550 1551 1551 1552 1553 1554 1555 1556 1556 1557 1557 1558 1559 1559 1560 1560 1560 1561 1561 1562 1562
1533 1534 1535 1536 1538 1539 1539 1540 1541 1541 1542 1542 1542 1543 1543 1544 1544 1545 1546 1547 1548 1549 1550 1550 1551 1552 1553 1554 1555 1555 1556 1556 1557 1557 1558 1559 1559 1559 1560 1560 1560 1560
1532 1533 1534 1536 1537 1538 1538 1538 1539 1539 1540 1541 1541 1542 1543 1543 1544 1545 1545 1546 1547 1548 1549 1549 1550 1551 1552 1552 1553 1554 1554 1555 1555 1555 1556 1557 1557 1558 1558 1558 1559 1559
1532 1533 1533 1534 1535 1536 1537 1537 1537 1538 1539 1539 1540 1541 1541 1542 1543 1543 1544 1545 1545 1546 1547 1548 1548 1549 1550 1550 1551 1552 1552 1553 1553 1553 1554 1554 1555 1555 1556 1556 1556 1556
1532 1533 1533 1534 1535 1535 1536 1536 1536 1537 1537 1538 1539 1539 1540 1540 1541 1541 1542 1543 1544 1544 1545 1546 1546 1547 1548 1548 1549 1549 1550 1550 1551 1551 1551 1551 1552 1552 1553 1553 1553 1553
1532 1532 1533 1533 1534 1534 1534 1534 1535 1535 1536 1537 1538 1538 1539 1539 1539 1540 1540 1541 1541 1542 1543 1543 1544 1545 1545 1546 1546 1546 1547 1547 1548 1548 1548 1548 1548 1549 1549 1549 1550 1550
1531 1531 1532 1532 1533 1533 1533 1533 1534 1534 1535 1536 1537 1537 1537 1538 1538 1538 1538 1539 1539 1539 1540 1540 1541 1542 1542 1543 1543 1543 1543 1543 1543 1543 1544 1544 1545 1545 1546 1546 1546 1546
1530 1530 1531 1531 1532 1532 1532 1532 1533 1533 1534 1534 1535 1535 1536 1536 1536 1536 1536 1536 1536 1536 1536 1537 1538 1538 1539 1539 1540 1540 1540 1539 1539 1539 1539 1540 1541 1542 1542 1542 1542 1541
1529 1529 1530 1530 1530 1530 1530 1530 1531 1531 1532 1532 1532 1533 1533 1533 1533 1533 1533 1533 1533 1533 1533 1533 1534 1535 1536 1536 1537 1537 1537 1536 1536 1535 1535 1536 1537 1537 1537 1537 1537 1537
1527 1528 1528 1528 1527 1527 1526 1527 1527 1528 1528 1529 1529 1529 1529 1529 1529 1529 1529 1530 1530 1530 1529 1530 1530 1530 1531 1532 1533 1534 1534 1533 1532 1532 1531 1532 1532 1532 1532 1532 1532 1532
Wind_Speed
12 12 12 13 12 10 9 9 8 7 6 4 2 2 1 3 7 9 7 6 5 5 7 9 9 8 8 9 10 9 10 10 10 10 10 12 13 13 14 14 14 13
14 13 12 12 11 9 8 9 7 6 5 3 1 0 2 1 5 8 7 6 5 5 7 8 8 9 10 10 9 10 11 11 12 13 13 15 16 16 16 15 15 14
14 13 12 11 10 8 9 9 8 7 6 3 2 2 2 2 3 5 6 4 5 8 10 9 9 10 9 8 8 9 11 13 16 16 16 16 16 16 16 14 15 13
13 12 12 11 10 9 9 10 10 9 8 5 4 3 3 4 5 6 6 4 8 11 11 9 9 9 8 8 9 11 13 16 18 19 18 17 15 15 15 14 13 12
14 13 12 11 10 10 10 11 10 9 9 6 5 4 4 4 5 6 5 7 11 12 11 10 9 8 7 7 9 12 15 17 18 19 19 18 16 15 15 14 14 13
15 14 13 11 10 10 11 11 10 9 8 6 5 4 4 5 6 6 5 8 13 14 12 11 10 9 7 5 9 12 14 16 17 17 17 17 16 16 16 15 15 15
15 15 13 11 10 10 11 11 9 7 6 6 5 5 6 7 7 6 6 9 13 14 12 12 11 10 8 7 9 11 12 14 16 17 17 17 16 15 15 16 17 18
15 15 14 12 11 11 11 10 9 7 6 5 5 7 8 8 8 8 8 10 12 12 11 11 11 10 10 10 10 10 11 13 16 17 17 16 15 15 15 16 18 20
16 15 14 13 12 11 11 10 8 6 5 5 6 8 9 8 8 9 10 11 12 11 10 10 10 10 11 12 11 12 13 16 17 17 16 15 15 15 16 16 18 20
17 16 15 14 13 11 11 10 8 5 5 6 8 9 9 10 9 10 10 10 10 11 11 10 10 12 13 13 14 15 17 18 18 16 15 14 15 15 15 15 17 18
18 17 16 15 13 12 12 10 7 6 6 8 10 10 11 11 10 9 9 8 7 9 11 12 11 13 15 16 16 17 17 18 18 17 16 16 16 15 14 14 14 16
18 17 17 16 13 12 13 10 7 6 7 9 11 12 12 12 11 9 7 6 5 6 9 11 10 12 16 16 16 17 16 16 17 17 15 15 16 15 15 14 13 14
17 14 13 12 11 12 12 9 6 7 8 10 12 13 12 11 10 9 8 7 6 5 6 7 7 10 15 16 16 16 15 15 16 17 16 15 15 15 15 15 15 14
16 12 9 9 10 12 11 7 7 8 9 11 12 13 11 9 7 8 9 8 7 6 6 5 5 7 13 16 17 16 16 16 16 17 17 17 16 16 16 16 16 16
15 13 11 11 10 10 9 7 7 9 11 12 13 12 11 9 6 6 7 8 9 8 8 7 6 6 8 13 15 17 17 18 18 18 18 18 18 18 17 17 16 16
15 14 14 13 11 10 9 8 7 8 10 12 12 11 9 9 9 7 5 7 9 9 10 10 8 7 7 8 11 14 16 18 19 19 19 20 20 20 20 18 17 17
15 15 16 15 15 14 12 10 9 8 9 10 12 12 9 8 11 11 7 7 9 9 9 11 10 9 9 9 9 11 13 16 18 19 20 21 22 22 22 21 20 19
13 13 13 14 15 14 13 12 11 11 10 10 11 12 9 8 11 13 11 10 11 11 11 12 13 12 13 14 13 13 13 14 15 17 19 21 23 24 24 23 23 22
15 13 13 13 12 12 12 12 11 11 12 12 12 12 11 9 11 13 14 13 14 14 14 15 15 15 16 17 18 19 18 17 17 18 19 20 21 23 24 24 24 24
17 16 15 13 11 11 11 10 9 8 9 10 10 11 11 12 12 14 16 17 18 18 18 19 19 19 18 18 18 20 21 22 22 22 22 22 22 22 23 24 25 25
17 16 15 14 13 12 11 10 9 8 8 8 8 9 10 11 12 13 14 16 18 20 22 23 23 22 22 22 21 21 21 23 25 26 26 26 26 26 26 26 27 27
14 14 13 13 12 12 11 10 9 9 9 10 9 9 9 10 10 10 10 11 12 14 17 20 22 23 24 24 25 24 23 23 26 28 30 30 30 30 30 30 30 31
9 9 8 7 8 8 8 9 8 8 9 10 10 10 10 10 10 10 10 10 10 10 12 14 16 18 21 23 25 26 26 27 28 29 31 32 33 33 33 33 33 34
4 5 4 3 4 5 5 6 7 7 8 9 9 10 11 10 11 11 11 11 12 12 13 14 15 16 17 19 22 24 27 29 30 30 30 30 32 33 34 35 35 36
3 4 6 6 6 7 7 8 9 10 11 11 12 12 13 13 14 14 14 14 14 14 15 16 17 17 16 17 19 21 23 26 29 30 30 30 31 32 33 35 36 37
7 8 9 10 11 11 12 13 14 15 15 16 16 17 17 18 19 20 20 20 19 19 19 18 19 19 19 18 18 19 21 23 25 27 29 29 29 31 32 34 34 35
Wind_Direction
168 162 156 149 146 144 150 164 171 174 180 189 179 143 135 193 186 184 188 187 183 184 185 192 204 209 195 181 180 180 181 186 187 182 171 160 160 164 162 158 157 157
166 162 158 152 150 148 154 165 170 173 184 198 208 199 350 298 182 182 191 194 191 181 172 175 182 182 176 173 174 175 175 175 170 166 163 159 160 161 158 153 151 152
166 164 162 159 160 159 161 171 178 185 192 199 213 241 287 279 211 195 200 196 178 172 170 169 164 160 159 160 161 163 165 164 161 160 161 162 163 162 160 154 153 158
172 171 169 166 170 171 170 176 182 189 196 199 209 225 248 251 228 212 214 199 172 169 168 168 162 150 146 151 156 157 160 162 162 164 166 166 166 165 164 163 165 171
178 179 176 173 180 185 182 182 184 189 196 198 203 218 227 212 194 196 199 175 167 168 166 165 165 159 154 157 161 161 163 165 167 171 173 170 170 171 172 173 176 178
183 184 181 179 187 190 188 189 189 190 195 197 197 196 178 161 158 168 169 162 168 174 173 172 175 176 177 179 173 167 167 170 173 178 180 177 176 177 178 181 181 178
186 186 183 184 191 195 196 194 191 193 197 194 182 163 149 144 144 151 153 156 168 177 181 186 190 191 194 194 181 170 168 173 176 180 185 183 179 180 181 184 183 175
191 188 188 190 192 196 200 194 188 190 194 186 165 150 144 138 134 140 145 151 164 174 181 186 193 197 194 192 187 176 169 171 175 178 182 180 175 172 172 176 179 177
196 195 197 195 194 199 198 188 178 178 179 168 156 149 139 129 125 128 132 143 161 173 177 181 188 189 184 182 183 176 167 166 170 175 175 171 169 165 161 165 173 179
197 200 201 196 196 199 189 176 167 169 166 153 152 149 136 126 126 124 120 125 148 167 174 176 176 172 168 166 168 167 163 161 164 169 171 168 166 164 158 158 166 176
194 197 199 196 198 194 181 174 170 171 165 155 154 152 140 135 139 139 126 116 129 155 166 170 168 164 161 159 161 163 163 163 165 169 172 170 169 169 165 160 162 171
192 193 194 193 195 188 178 179 182 176 165 155 155 154 146 143 148 155 152 139 137 148 159 167 168 165 166 167 167 168 170 171 173 176 178 177 176 176 177 175 174 177
189 189 188 187 188 185 182 184 181 173 161 152 154 155 154 152 154 164 171 165 167 172 167 172 173 170 177 182 180 178 180 182 184 188 191 190 188 187 189 191 192 193
179 177 178 181 182 182 181 175 164 162 155 150 154 159 162 163 158 170 181 179 187 198 192 195 200 185 186 192 194 191 191 194 198 201 204 204 203 204 206 207 207 208
167 168 181 188 188 187 181 168 158 159 159 161 165 168 172 178 178 181 189 191 198 209 212 221 234 227 207 204 207 206 204 206 208 210 214 217 218 221 223 224 225 225
163 170 187 189 187 189 190 188 178 169 172 177 181 183 185 193 200 202 202 203 206 213 221 231 239 241 235 226 223 224 222 220 220 220 223 226 229 232 235 237 241 242
172 177 191 195 193 191 191 195 196 192 195 199 199 201 201 199 201 200 200 205 212 222 231 238 243 243 245 248 244 240 238 235 233 231 229 231 234 237 240 244 247 248
161 171 187 196 200 197 193 197 203 207 210 210 209 210 210 204 201 203 205 206 213 225 233 240 247 250 250 251 251 252 252 252 250 245 240 237 237 237 240 243 246 248
139 152 165 175 184 188 189 194 198 201 205 207 209 212 215 213 206 207 211 211 214 222 228 233 239 245 249 251 252 253 253 253 255 256 254 250 246 244 243 244 247 249
134 142 146 150 159 168 174 175 173 177 187 198 204 209 215 219 218 219 221 221 223 225 228 233 235 238 243 247 250 252 253 252 253 254 255 257 257 255 252 250 251 251
127 130 132 136 141 150 158 157 155 158 164 176 185 190 200 210 219 226 229 232 235 234 233 236 237 239 242 245 247 250 251 253 253 253 253 254 255 256 256 255 255 255
126 127 128 133 139 146 151 152 153 156 163 175 185 189 196 203 208 216 221 227 236 239 240 241 242 244 246 247 249 251 252 253 251 250 250 250 250 253 256 258 259 260
139 141 136 138 150 158 160 160 162 166 173 181 187 190 197 205 212 219 223 225 230 236 240 244 246 248 249 249 249 251 254 255 254 251 248 246 246 249 252 256 260 263
169 181 193 207 206 204 207 208 207 211 214 212 211 211 212 217 224 228 231 237 242 243 244 248 249 251 252 251 248 248 250 254 257 260 257 251 249 249 252 256 260 263
258 249 249 255 256 252 254 254 251 250 251 251 250 248 246 247 248 248 246 246 249 250 252 253 253 252 253 256 255 252 252 253 256 260 262 261 258 257 257 258 260 262
288 282 277 275 273 271 271 270 269 268 267 266 265 263 261 259 260 260 259 257 255 254 254 255 257 257 255 257 260 259 257 258 258 259 261 262 262 261 260 260 261 261